Location: Dallas
(32.7833°N, 96.8000°W)
Time: 22:35:14
(UTC-06:00)

Envisat - Pass Details

Date: 09 December 2021
Orbit: 764 x 766 km, 98.2° (Epoch: 23 January)

Event Time Altitude Azimuth Distance (km) Brightness Sun altitude
Rises 17:39:39 0° 200° (SSW) 3,216 7.0 -4.3°
Reaches altitude 10° 17:42:27 10° 216° (SW) 2,294 6.6 -4.9°
Maximum altitude 17:46:16 21° 265° (W) 1,647 5.9 -5.6°
Drops below altitude 10° 17:50:07 10° 314° (NW) 2,305 5.8 -6.3°
Sets 17:52:57 0° 330° (NNW) 3,235 6.3 -6.9°
